User: anonymous   Login
Location: Rounton
(54.4000°N, 1.3500°W)
Time: 09:01:31
(UTC+01:00)
Language:

FENGYUN 1C DEB - Orbit

View from above orbital plane
View from above orbital plane
View from above satellite
View from above satellite

Ground track
Ground track

The orbit data is extracted from the following two-line orbital elements,

1 31459U 99025BUX 22173.61290908  .00001991  00000-0  79237-3 0  9998
2 31459  98.1302 137.1652 0123647 329.1563  30.2394 14.25564486463766
Epoch (UTC): 22 June 2022 14:42:35
Eccentricity: 0.0123647
inclination: 98.1302°
perigee height: 718 km
apogee height: 895 km
right ascension of ascending node: 137.1652°
argument of perigee: 329.1563°
revolutions per day: 14.25564486
mean anomaly at epoch: 30.2394°
orbit number at epoch: 46376

The dashed part of the orbit path shows where the satellite is in the earth's shadow,  

DLR